Simultaneous Nadir Overpasses (SNOs) Predictions

Prediction of SNOs between GOES-16 and LANDSAT-8 Satellite Orbit:

Table of predicted SNOs for the next 14.0 days since TLE Epoch: 2/25/2023
Index Date Time (GOES-16) GOES-16 Lat,Lon LANDSAT-8 Lat,Lon Distance(km) Time Diff (sec)
1 02/25/2023 15:27:29 0.05, -75.20 0.73, -78.33 356.61 80
2 02/27/2023 15:15:18 0.04, -75.20 0.11, -75.38 20.50 80
3 03/01/2023 15:00:27 0.04, -75.22 -0.53, -72.43 316.57 80
4 03/02/2023 03:24:31 -0.04, -75.21 -0.58, -77.62 274.37 80
5 03/04/2023 03:09:40 -0.04, -75.23 0.08, -74.67 63.44 80
6 03/06/2023 02:57:28 -0.04, -75.25 0.70, -71.71 402.13 80
7 03/06/2023 15:18:44 0.04, -75.27 0.36, -76.88 182.59 80
8 03/08/2023 15:09:11 0.04, -75.30 -0.22, -73.91 157.23 80
9 03/09/2023 03:30:35 -0.04, -75.30 -0.87, -79.11 432.84 80
10 03/10/2023 14:56:59 0.04, -75.34 -0.88, -70.96 497.54 80
11 03/11/2023 03:18:23 -0.04, -75.34 -0.21, -76.16 92.40 80
